THA981 VTBS-RPLL

Flight info

Callsign THA981
Flight time 2h 45m
Altitude 41000
Route DOSBU1G DOSBU L880 VEMKO G474 ANINA/K0898F410 G474 PCA L628 MESOX/N0486F410 L628 DODUS W3 LUBAN LUBAN5R
Aircraft A359/H-SDE2E3GHIJ3J4J5LM1ORWXY/LB1D1

Departure

Time 2026-05-06 12:11
Airport Suvarnabhumi Airport (VTBS)

Arrival

Time 2026-05-06 14:56
Airport Ninoy Aquino International Airport (RPLL)
Time Latitude Longitude Altitude Speed Heading
2026-05-06 11:47 13.69018 100.74707 23 ft 0 kts 284°
2026-05-06 12:01 13.69018 100.74709 19 ft 2 kts 284°
2026-05-06 12:02 13.69012 100.74735 21 ft 4 kts 284°
2026-05-06 12:02 13.69006 100.74759 23 ft 4 kts 270°
2026-05-06 12:02 13.69014 100.74780 22 ft 4 kts 208°
2026-05-06 12:02 13.69038 100.74789 21 ft 3 kts 194°
2026-05-06 12:03 13.69046 100.74791 21 ft 0 kts 194°
2026-05-06 12:05 13.69028 100.74786 24 ft 4 kts 194°
2026-05-06 12:05 13.68981 100.74775 23 ft 10 kts 190°
2026-05-06 12:05 13.68892 100.74755 22 ft 15 kts 195°
2026-05-06 12:06 13.68776 100.74720 22 ft 19 kts 189°
2026-05-06 12:06 13.68696 100.74733 22 ft 6 kts 119°
2026-05-06 12:06 13.68677 100.74785 23 ft 9 kts 107°
2026-05-06 12:06 13.68653 100.74871 19 ft 19 kts 105°
2026-05-06 12:07 13.68616 100.75014 23 ft 22 kts 105°
2026-05-06 12:07 13.68577 100.75170 23 ft 23 kts 104°
2026-05-06 12:07 13.68535 100.75337 22 ft 25 kts 104°
2026-05-06 12:07 13.68496 100.75502 21 ft 24 kts 106°
2026-05-06 12:08 13.68456 100.75665 23 ft 19 kts 92°
2026-05-06 12:08 13.68535 100.75745 23 ft 18 kts 17°
2026-05-06 12:08 13.68670 100.75781 22 ft 23 kts 15°
2026-05-06 12:08 13.68847 100.75829 22 ft 30 kts 14°
2026-05-06 12:09 13.69055 100.75883 20 ft 24 kts 14°
2026-05-06 12:09 13.69160 100.75912 21 ft 16 kts 24°
2026-05-06 12:09 13.69200 100.76011 18 ft 18 kts 91°
2026-05-06 12:09 13.69135 100.76081 21 ft 16 kts 167°
2026-05-06 12:10 13.69005 100.76060 22 ft 23 kts 195°
2026-05-06 12:10 13.68607 100.75955 26 ft 99 kts 194°
2026-05-06 12:10 13.67701 100.75714 23 ft 167 kts 196°
2026-05-06 12:10 13.66489 100.75367 411 ft 193 kts 195°
2026-05-06 12:11 13.65104 100.75123 663 ft 214 kts 180°
2026-05-06 12:11 13.63525 100.75157 878 ft 245 kts 179°
2026-05-06 12:11 13.61764 100.75284 1435 ft 258 kts 168°
2026-05-06 12:11 13.60245 100.76149 2497 ft 253 kts 134°
2026-05-06 12:12 13.59250 100.77654 3369 ft 258 kts 118°
2026-05-06 12:12 13.58411 100.79301 4143 ft 261 kts 117°
2026-05-06 12:12 13.57609 100.80982 5108 ft 262 kts 111°
2026-05-06 12:12 13.57268 100.82823 5942 ft 265 kts 92°
2026-05-06 12:13 13.57248 100.84732 6722 ft 270 kts 90°
2026-05-06 12:13 13.57261 100.86692 7370 ft 277 kts 90°
2026-05-06 12:13 13.57264 100.88683 7727 ft 279 kts 90°
2026-05-06 12:13 13.57259 100.90678 7837 ft 279 kts 91°
2026-05-06 12:14 13.57253 100.92655 8092 ft 283 kts 91°
2026-05-06 12:14 13.57238 100.94701 8739 ft 287 kts 91°
2026-05-06 12:14 13.57222 100.96755 9691 ft 288 kts 91°
2026-05-06 12:14 13.57205 100.98843 10364 ft 300 kts 91°
2026-05-06 12:15 13.57189 101.01056 10722 ft 320 kts 91°
2026-05-06 12:15 13.57398 101.03404 11068 ft 339 kts 77°
2026-05-06 12:15 13.58158 101.05751 11510 ft 353 kts 69°
2026-05-06 12:15 13.59083 101.08128 12085 ft 361 kts 68°
2026-05-06 12:16 13.60025 101.10541 12764 ft 364 kts 68°
2026-05-06 12:16 13.60968 101.12976 13434 ft 369 kts 68°
2026-05-06 12:16 13.61916 101.15439 14034 ft 373 kts 68°
2026-05-06 12:16 13.62872 101.17931 14644 ft 375 kts 68°
2026-05-06 12:17 13.63836 101.20447 15176 ft 380 kts 68°
2026-05-06 12:17 13.64798 101.22961 15737 ft 384 kts 68°
2026-05-06 12:17 13.65779 101.25528 16328 ft 387 kts 68°
2026-05-06 12:17 13.66762 101.28102 16869 ft 390 kts 68°
2026-05-06 12:18 13.67769 101.30739 17424 ft 394 kts 68°
2026-05-06 12:18 13.68775 101.33373 17964 ft 398 kts 68°
2026-05-06 12:18 13.69778 101.36004 18451 ft 401 kts 68°
2026-05-06 12:18 13.70813 101.38718 18943 ft 404 kts 68°
2026-05-06 12:19 13.71830 101.41386 19383 ft 407 kts 68°
2026-05-06 12:19 13.72877 101.44132 19872 ft 410 kts 68°
2026-05-06 12:19 13.73909 101.46842 20333 ft 413 kts 68°
2026-05-06 12:19 13.74963 101.49610 20810 ft 416 kts 68°
2026-05-06 12:20 13.76032 101.52421 21297 ft 420 kts 68°
2026-05-06 12:20 13.77093 101.55208 21752 ft 423 kts 68°
2026-05-06 12:20 13.78168 101.58036 22253 ft 426 kts 68°
2026-05-06 12:20 13.79247 101.60875 22710 ft 429 kts 68°
2026-05-06 12:21 13.80332 101.63729 23183 ft 432 kts 68°
2026-05-06 12:21 13.81440 101.66646 23617 ft 436 kts 68°
2026-05-06 12:21 13.82547 101.69562 23962 ft 440 kts 68°
2026-05-06 12:21 13.83649 101.72466 24322 ft 443 kts 68°
2026-05-06 12:22 13.84780 101.75446 24719 ft 446 kts 68°
2026-05-06 12:22 13.85902 101.78406 25173 ft 448 kts 68°
2026-05-06 12:22 13.86966 101.81450 25587 ft 452 kts 73°
2026-05-06 12:22 13.87613 101.84636 26062 ft 456 kts 83°
2026-05-06 12:23 13.87804 101.87911 26535 ft 459 kts 88°
2026-05-06 12:23 13.87818 101.91196 27003 ft 463 kts 90°
2026-05-06 12:23 13.87750 101.94499 27491 ft 467 kts 91°
2026-05-06 12:23 13.87653 101.97883 27962 ft 470 kts 91°
2026-05-06 12:24 13.87557 102.01229 28427 ft 474 kts 91°
2026-05-06 12:24 13.87473 102.04637 28903 ft 477 kts 90°
2026-05-06 12:24 13.87401 102.08044 29379 ft 480 kts 90°
2026-05-06 12:24 13.87337 102.11498 29828 ft 483 kts 90°
2026-05-06 12:25 13.87279 102.14954 30184 ft 487 kts 90°
2026-05-06 12:25 13.87222 102.18488 30554 ft 490 kts 90°
2026-05-06 12:25 13.87165 102.21987 30909 ft 493 kts 90°
2026-05-06 12:25 13.87108 102.25496 31248 ft 496 kts 90°
2026-05-06 12:26 13.87049 102.29066 31592 ft 499 kts 90°
2026-05-06 12:26 13.86988 102.32636 31920 ft 502 kts 90°
2026-05-06 12:26 13.86927 102.36241 32224 ft 505 kts 90°
2026-05-06 12:26 13.86864 102.39862 32537 ft 507 kts 90°
2026-05-06 12:27 13.86798 102.43542 32864 ft 509 kts 90°
2026-05-06 12:27 13.86734 102.47132 33227 ft 509 kts 90°
2026-05-06 12:27 13.86667 102.50811 33661 ft 509 kts 90°
2026-05-06 12:27 13.86602 102.54405 34044 ft 508 kts 90°
2026-05-06 12:28 13.86536 102.58057 34365 ft 508 kts 90°
2026-05-06 12:28 13.86469 102.61700 34697 ft 508 kts 91°
2026-05-06 12:28 13.86402 102.65333 35014 ft 508 kts 91°
2026-05-06 12:28 13.86334 102.68974 35323 ft 508 kts 91°
2026-05-06 12:29 13.86266 102.72609 35687 ft 507 kts 91°
2026-05-06 12:29 13.86197 102.76220 35997 ft 507 kts 91°
2026-05-06 12:29 13.86128 102.79844 36350 ft 506 kts 91°
2026-05-06 12:29 13.86059 102.83469 36680 ft 505 kts 91°
2026-05-06 12:30 13.85989 102.87086 36985 ft 505 kts 91°
2026-05-06 12:30 13.85918 102.90716 37294 ft 505 kts 91°
2026-05-06 12:30 13.85847 102.94283 37596 ft 505 kts 91°
2026-05-06 12:30 13.85775 102.97939 37908 ft 505 kts 91°
2026-05-06 12:31 13.85704 103.01501 38207 ft 504 kts 91°
2026-05-06 12:31 13.85631 103.05112 38506 ft 504 kts 91°
2026-05-06 12:31 13.85558 103.08711 38756 ft 503 kts 91°
2026-05-06 12:31 13.85485 103.12312 39017 ft 502 kts 91°
2026-05-06 12:32 13.85411 103.15898 39287 ft 501 kts 91°
2026-05-06 12:32 13.85337 103.19477 39547 ft 499 kts 91°
2026-05-06 12:32 13.85263 103.23046 39794 ft 498 kts 91°
2026-05-06 12:32 13.85188 103.26611 40056 ft 497 kts 91°
2026-05-06 12:33 13.85113 103.30147 40409 ft 493 kts 91°
2026-05-06 12:33 13.85038 103.33671 40629 ft 492 kts 91°
2026-05-06 12:33 13.84962 103.37200 40792 ft 493 kts 91°
2026-05-06 12:33 13.84886 103.40725 40829 ft 493 kts 91°
2026-05-06 12:34 13.84734 103.47764 40827 ft 492 kts 91°
2026-05-06 12:34 13.84578 103.54813 40832 ft 493 kts 91°
2026-05-06 12:35 13.84424 103.61828 40826 ft 494 kts 91°
2026-05-06 12:35 13.84266 103.68888 40836 ft 494 kts 91°
2026-05-06 12:36 13.84101 103.75952 40831 ft 494 kts 91°
2026-05-06 12:36 13.83935 103.83019 40839 ft 494 kts 91°
2026-05-06 12:37 13.83769 103.90084 40840 ft 495 kts 91°
2026-05-06 12:37 13.83601 103.97138 40837 ft 496 kts 91°
2026-05-06 12:38 13.83430 104.04253 40839 ft 496 kts 91°
2026-05-06 12:38 13.83257 104.11348 40836 ft 496 kts 91°
2026-05-06 12:39 13.83082 104.18399 40833 ft 496 kts 91°
2026-05-06 12:39 13.82904 104.25540 40835 ft 496 kts 91°
2026-05-06 12:40 13.82725 104.32615 40831 ft 496 kts 91°
2026-05-06 12:40 13.82544 104.39717 40835 ft 496 kts 91°
2026-05-06 12:41 13.82361 104.46791 40836 ft 496 kts 91°
2026-05-06 12:41 13.82175 104.53902 40838 ft 496 kts 92°
2026-05-06 12:42 13.81988 104.60977 40835 ft 497 kts 92°
2026-05-06 12:42 13.81798 104.68096 40835 ft 497 kts 92°
2026-05-06 12:43 13.81606 104.75192 40840 ft 497 kts 92°
2026-05-06 12:43 13.81413 104.82295 40839 ft 497 kts 92°
2026-05-06 12:44 13.81217 104.89407 40839 ft 497 kts 92°
2026-05-06 12:44 13.81019 104.96508 40838 ft 497 kts 92°
2026-05-06 12:45 13.80819 105.03592 40834 ft 497 kts 92°
2026-05-06 12:46 13.80515 105.14261 40833 ft 497 kts 92°
2026-05-06 12:46 13.80310 105.21372 40839 ft 497 kts 92°
2026-05-06 12:47 13.80103 105.28481 40837 ft 497 kts 92°
2026-05-06 12:47 13.79893 105.35586 40835 ft 496 kts 92°
2026-05-06 12:48 13.79682 105.42685 40840 ft 496 kts 92°
2026-05-06 12:48 13.79471 105.49735 40839 ft 496 kts 92°
2026-05-06 12:49 13.79255 105.56829 40842 ft 496 kts 92°
2026-05-06 12:49 13.79037 105.63938 40840 ft 496 kts 92°
2026-05-06 12:50 13.78818 105.71024 40841 ft 495 kts 92°
2026-05-06 12:50 13.78635 105.76895 40839 ft 494 kts 92°
2026-05-06 12:51 13.78412 105.83966 40840 ft 494 kts 92°
2026-05-06 12:51 13.78188 105.91025 40840 ft 494 kts 92°
2026-05-06 12:52 13.77962 105.98094 40837 ft 494 kts 92°
2026-05-06 12:52 13.77734 106.05152 40837 ft 493 kts 92°
2026-05-06 12:53 13.77887 106.12163 40837 ft 493 kts 82°
2026-05-06 12:53 13.78880 106.19136 40834 ft 493 kts 81°
2026-05-06 12:54 13.80011 106.26090 40838 ft 493 kts 81°
2026-05-06 12:54 13.81155 106.33053 40837 ft 493 kts 81°
2026-05-06 12:55 13.82281 106.40011 40838 ft 492 kts 81°
2026-05-06 12:55 13.83394 106.46964 40840 ft 492 kts 81°
2026-05-06 12:56 13.84501 106.53905 40841 ft 492 kts 81°
2026-05-06 12:56 13.85607 106.60846 40840 ft 492 kts 81°
2026-05-06 12:57 13.86713 106.67797 40841 ft 492 kts 81°
2026-05-06 12:57 13.87808 106.74694 40843 ft 491 kts 81°
2026-05-06 12:58 13.88907 106.81626 40849 ft 491 kts 81°
2026-05-06 12:58 13.90004 106.88558 40848 ft 491 kts 81°
2026-05-06 12:59 13.91102 106.95508 40852 ft 491 kts 81°
2026-05-06 12:59 13.92200 107.02475 40854 ft 491 kts 81°
2026-05-06 13:00 13.93292 107.09419 40861 ft 493 kts 81°
2026-05-06 13:00 13.94391 107.16414 40866 ft 495 kts 81°
2026-05-06 13:01 13.95482 107.23405 40869 ft 495 kts 81°
2026-05-06 13:01 13.96569 107.30350 40862 ft 494 kts 81°
2026-05-06 13:02 13.97665 107.37359 40872 ft 494 kts 81°
2026-05-06 13:02 13.98414 107.44381 40870 ft 494 kts 86°
2026-05-06 13:03 13.98738 107.51447 40887 ft 495 kts 88°
2026-05-06 13:03 13.98996 107.58525 40898 ft 495 kts 88°
2026-05-06 13:04 13.99250 107.65589 40901 ft 495 kts 88°
2026-05-06 13:04 13.99511 107.72657 40896 ft 495 kts 88°
2026-05-06 13:05 13.99775 107.79770 40909 ft 495 kts 88°
2026-05-06 13:05 14.00038 107.86808 40913 ft 495 kts 88°
2026-05-06 13:06 14.00300 107.93896 40922 ft 495 kts 88°
2026-05-06 13:06 14.00556 108.00993 40922 ft 495 kts 88°
2026-05-06 13:07 14.00597 108.08089 40934 ft 495 kts 93°
2026-05-06 13:07 14.00159 108.15160 40933 ft 495 kts 94°
2026-05-06 13:08 13.99710 108.22250 40940 ft 495 kts 93°
2026-05-06 13:08 13.99342 108.29325 40940 ft 495 kts 93°
2026-05-06 13:09 13.99011 108.36362 40938 ft 495 kts 93°
2026-05-06 13:09 13.98683 108.43444 40939 ft 495 kts 93°
2026-05-06 13:10 13.98349 108.50527 40940 ft 495 kts 93°
2026-05-06 13:10 13.98009 108.57638 40939 ft 496 kts 93°
2026-05-06 13:11 13.97668 108.64700 40935 ft 496 kts 93°
2026-05-06 13:11 13.97326 108.71764 40932 ft 496 kts 93°
2026-05-06 13:12 13.96981 108.78843 40929 ft 495 kts 93°
2026-05-06 13:12 13.96631 108.85978 40925 ft 496 kts 93°
2026-05-06 13:13 13.96285 108.93010 40924 ft 496 kts 93°
2026-05-06 13:13 13.95933 109.00114 40919 ft 496 kts 93°
2026-05-06 13:14 13.95617 109.07243 40916 ft 496 kts 91°
2026-05-06 13:14 13.95696 109.14317 40912 ft 496 kts 88°
2026-05-06 13:15 13.95877 109.21392 40915 ft 497 kts 88°
2026-05-06 13:15 13.96004 109.28499 40911 ft 497 kts 89°
2026-05-06 13:16 13.96088 109.35628 40908 ft 497 kts 89°
2026-05-06 13:16 13.96159 109.42758 40909 ft 497 kts 89°
2026-05-06 13:17 13.96229 109.49851 40905 ft 497 kts 89°
2026-05-06 13:17 13.96298 109.56937 40903 ft 497 kts 89°
2026-05-06 13:18 13.96365 109.64086 40908 ft 497 kts 89°
2026-05-06 13:18 13.96429 109.71200 40906 ft 497 kts 89°
2026-05-06 13:19 13.96491 109.78288 40904 ft 497 kts 89°
2026-05-06 13:19 13.96551 109.85410 40906 ft 497 kts 89°
2026-05-06 13:20 13.96609 109.92558 40906 ft 497 kts 89°
2026-05-06 13:20 13.96665 109.99645 40905 ft 497 kts 89°
2026-05-06 13:21 13.96735 110.06749 40905 ft 497 kts 89°
2026-05-06 13:21 13.96812 110.13894 40911 ft 497 kts 89°
2026-05-06 13:22 13.96886 110.21009 40907 ft 497 kts 89°
2026-05-06 13:22 13.96957 110.28137 40909 ft 497 kts 89°
2026-05-06 13:23 13.97024 110.35207 40908 ft 497 kts 89°
2026-05-06 13:23 13.97089 110.42335 40909 ft 497 kts 89°
2026-05-06 13:24 13.97153 110.49452 40910 ft 497 kts 89°
2026-05-06 13:24 13.97215 110.56574 40908 ft 497 kts 89°
2026-05-06 13:25 13.97274 110.63694 40911 ft 497 kts 89°
2026-05-06 13:25 13.97331 110.70769 40911 ft 497 kts 89°
2026-05-06 13:26 13.97387 110.77876 40909 ft 497 kts 89°
2026-05-06 13:26 13.97440 110.84991 40908 ft 497 kts 89°
2026-05-06 13:27 13.97491 110.92109 40911 ft 497 kts 89°
2026-05-06 13:27 13.97540 110.99228 40911 ft 497 kts 89°
2026-05-06 13:28 13.97587 111.06341 40913 ft 497 kts 89°
2026-05-06 13:28 13.97632 111.13408 40912 ft 497 kts 89°
2026-05-06 13:29 13.97675 111.20544 40909 ft 499 kts 89°
2026-05-06 13:29 13.97716 111.27684 40914 ft 499 kts 89°
2026-05-06 13:30 13.97755 111.34830 40912 ft 499 kts 89°
2026-05-06 13:30 13.97791 111.41981 40913 ft 499 kts 89°
2026-05-06 13:31 13.97826 111.49160 40911 ft 499 kts 89°
2026-05-06 13:31 13.97858 111.56289 40913 ft 499 kts 89°
2026-05-06 13:32 13.97885 111.63445 40914 ft 499 kts 89°
2026-05-06 13:32 13.97910 111.70540 40914 ft 499 kts 89°
2026-05-06 13:33 13.97933 111.77715 40916 ft 499 kts 89°
2026-05-06 13:33 13.97955 111.84870 40916 ft 499 kts 89°
2026-05-06 13:34 13.97974 111.91978 40912 ft 499 kts 89°
2026-05-06 13:34 13.97991 111.99135 40914 ft 499 kts 89°
2026-05-06 13:35 13.98006 112.06292 40916 ft 499 kts 89°
2026-05-06 13:35 13.98019 112.13443 40918 ft 500 kts 89°
2026-05-06 13:36 13.98030 112.20594 40916 ft 500 kts 89°
2026-05-06 13:36 13.98039 112.27752 40916 ft 500 kts 89°
2026-05-06 13:37 13.98045 112.34921 40919 ft 500 kts 89°
2026-05-06 13:37 13.98050 112.42020 40919 ft 500 kts 89°
2026-05-06 13:38 13.98052 112.49181 40916 ft 499 kts 89°
2026-05-06 13:38 13.98053 112.56330 40916 ft 499 kts 89°
2026-05-06 13:39 13.98052 112.62269 40919 ft 499 kts 89°
2026-05-06 13:39 13.98048 112.69407 40919 ft 499 kts 89°
2026-05-06 13:40 13.98042 112.77767 40918 ft 499 kts 89°
2026-05-06 13:40 13.98035 112.83707 40918 ft 498 kts 89°
2026-05-06 13:41 13.98026 112.90835 40919 ft 498 kts 89°
2026-05-06 13:41 13.98014 112.97920 40919 ft 498 kts 89°
2026-05-06 13:42 13.98000 113.05047 40914 ft 498 kts 89°
2026-05-06 13:42 13.97990 113.12176 40923 ft 498 kts 89°
2026-05-06 13:43 13.97971 113.19307 40916 ft 497 kts 89°
2026-05-06 13:43 13.97951 113.26447 40916 ft 497 kts 89°
2026-05-06 13:44 13.97930 113.33509 40918 ft 497 kts 89°
2026-05-06 13:44 13.97907 113.40626 40924 ft 497 kts 89°
2026-05-06 13:45 13.97882 113.47739 40927 ft 496 kts 89°
2026-05-06 13:45 13.97841 113.58409 40928 ft 496 kts 89°
2026-05-06 13:46 13.97811 113.65474 40919 ft 496 kts 90°
2026-05-06 13:46 13.97779 113.72596 40919 ft 496 kts 90°
2026-05-06 13:47 13.97745 113.79696 40924 ft 496 kts 90°
2026-05-06 13:47 13.97709 113.86796 40922 ft 496 kts 90°
2026-05-06 13:48 13.97671 113.93905 40927 ft 496 kts 90°
2026-05-06 13:48 13.97630 114.00989 40923 ft 496 kts 90°
2026-05-06 13:49 13.97588 114.08087 40928 ft 496 kts 90°
2026-05-06 13:49 13.97544 114.15159 40928 ft 495 kts 90°
2026-05-06 13:50 13.97498 114.22241 40921 ft 495 kts 90°
2026-05-06 13:50 13.97449 114.29308 40928 ft 495 kts 90°
2026-05-06 13:51 13.97399 114.36430 40930 ft 495 kts 90°
2026-05-06 13:51 13.97357 114.43480 40926 ft 495 kts 89°
2026-05-06 13:52 13.97850 114.50527 40925 ft 494 kts 84°
2026-05-06 13:52 13.98510 114.57611 40921 ft 494 kts 84°
2026-05-06 13:53 13.99188 114.64634 40922 ft 494 kts 83°
2026-05-06 13:53 13.99861 114.71670 40921 ft 494 kts 84°
2026-05-06 13:54 14.00521 114.78678 40921 ft 494 kts 84°
2026-05-06 13:54 14.01179 114.85709 40921 ft 494 kts 84°
2026-05-06 13:55 14.01836 114.92746 40923 ft 494 kts 84°
2026-05-06 13:55 14.02494 114.99818 40922 ft 494 kts 84°
2026-05-06 13:56 14.03147 115.06850 40929 ft 493 kts 84°
2026-05-06 13:56 14.03797 115.13877 40925 ft 493 kts 84°
2026-05-06 13:57 14.04442 115.20875 40921 ft 493 kts 84°
2026-05-06 13:57 14.05086 115.27888 40918 ft 493 kts 84°
2026-05-06 13:58 14.05734 115.34956 40925 ft 493 kts 84°
2026-05-06 13:58 14.06371 115.41931 40927 ft 492 kts 84°
2026-05-06 13:59 14.07013 115.48980 40926 ft 492 kts 84°
2026-05-06 13:59 14.07648 115.55980 40927 ft 493 kts 84°
2026-05-06 14:00 14.08287 115.63040 40927 ft 493 kts 84°
2026-05-06 14:00 14.08921 115.70076 40928 ft 493 kts 84°
2026-05-06 14:01 14.09551 115.77091 40927 ft 493 kts 84°
2026-05-06 14:01 14.10180 115.84113 40925 ft 493 kts 84°
2026-05-06 14:02 14.10803 115.91095 40926 ft 493 kts 84°
2026-05-06 14:02 14.11429 115.98127 40923 ft 493 kts 84°
2026-05-06 14:03 14.12053 116.05158 40926 ft 493 kts 84°
2026-05-06 14:03 14.12675 116.12202 40927 ft 492 kts 84°
2026-05-06 14:04 14.13294 116.19232 40927 ft 492 kts 84°
2026-05-06 14:04 14.13911 116.26260 40921 ft 492 kts 84°
2026-05-06 14:05 14.14525 116.33277 40924 ft 492 kts 84°
2026-05-06 14:05 14.15137 116.40292 40925 ft 492 kts 84°
2026-05-06 14:06 14.15747 116.47303 40923 ft 492 kts 84°
2026-05-06 14:06 14.16350 116.54276 40919 ft 492 kts 84°
2026-05-06 14:07 14.16957 116.61298 40925 ft 492 kts 84°
2026-05-06 14:07 14.17560 116.68317 40922 ft 492 kts 84°
2026-05-06 14:08 14.18163 116.75344 40926 ft 492 kts 84°
2026-05-06 14:08 14.18763 116.82369 40922 ft 492 kts 84°
2026-05-06 14:09 14.19362 116.89403 40923 ft 492 kts 85°
2026-05-06 14:09 14.19959 116.96439 40922 ft 493 kts 85°
2026-05-06 14:10 14.20549 117.03431 40923 ft 493 kts 84°
2026-05-06 14:10 14.21142 117.10469 40923 ft 493 kts 85°
2026-05-06 14:11 14.21733 117.17510 40924 ft 493 kts 85°
2026-05-06 14:11 14.22322 117.24563 40921 ft 493 kts 85°
2026-05-06 14:12 14.22910 117.31612 40922 ft 493 kts 85°
2026-05-06 14:12 14.23495 117.38657 40921 ft 493 kts 85°
2026-05-06 14:13 14.24077 117.45701 40921 ft 493 kts 85°
2026-05-06 14:13 14.24658 117.52751 40919 ft 493 kts 85°
2026-05-06 14:14 14.25237 117.59799 40919 ft 494 kts 85°
2026-05-06 14:14 14.25810 117.66806 40920 ft 493 kts 85°
2026-05-06 14:15 14.26385 117.73852 40921 ft 493 kts 85°
2026-05-06 14:15 14.26957 117.80901 40924 ft 493 kts 85°
2026-05-06 14:16 14.27528 117.87951 40921 ft 493 kts 85°
2026-05-06 14:16 14.28096 117.94997 40923 ft 493 kts 85°
2026-05-06 14:17 14.28661 118.02033 40921 ft 493 kts 85°
2026-05-06 14:17 14.29225 118.09083 40920 ft 493 kts 85°
2026-05-06 14:18 14.29784 118.16087 40923 ft 494 kts 85°
2026-05-06 14:18 14.30345 118.23149 40919 ft 494 kts 85°
2026-05-06 14:19 14.30904 118.30211 40922 ft 494 kts 85°
2026-05-06 14:19 14.31460 118.37271 40919 ft 494 kts 85°
2026-05-06 14:20 14.32015 118.44342 40916 ft 495 kts 85°
2026-05-06 14:20 14.32569 118.51422 40921 ft 495 kts 85°
2026-05-06 14:21 14.33116 118.58444 40920 ft 495 kts 85°
2026-05-06 14:21 14.33666 118.65526 40923 ft 495 kts 85°
2026-05-06 14:22 14.34214 118.72609 40924 ft 495 kts 85°
2026-05-06 14:22 14.34760 118.79704 40926 ft 496 kts 85°
2026-05-06 14:23 14.35304 118.86798 40919 ft 496 kts 85°
2026-05-06 14:23 14.35846 118.93889 40917 ft 496 kts 85°
2026-05-06 14:24 14.36382 119.00936 40923 ft 497 kts 85°
2026-05-06 14:24 14.36921 119.08046 40920 ft 497 kts 85°
2026-05-06 14:25 14.37457 119.15147 40920 ft 497 kts 85°
2026-05-06 14:25 14.37993 119.22265 40924 ft 497 kts 85°
2026-05-06 14:26 14.38526 119.29385 40916 ft 498 kts 85°
2026-05-06 14:26 14.38968 119.35301 40574 ft 498 kts 85°
2026-05-06 14:27 14.39233 119.38870 40328 ft 499 kts 85°
2026-05-06 14:27 14.39446 119.42440 40087 ft 500 kts 89°
2026-05-06 14:27 14.39253 119.46024 39851 ft 500 kts 98°
2026-05-06 14:27 14.38525 119.49534 39491 ft 498 kts 108°
2026-05-06 14:28 14.37241 119.52842 38886 ft 496 kts 118°
2026-05-06 14:28 14.35411 119.55846 38173 ft 494 kts 129°
2026-05-06 14:28 14.33187 119.58544 37453 ft 493 kts 133°
2026-05-06 14:28 14.30865 119.61142 36773 ft 492 kts 134°
2026-05-06 14:29 14.28506 119.63698 36060 ft 492 kts 135°
2026-05-06 14:29 14.26137 119.66240 35345 ft 492 kts 135°
2026-05-06 14:29 14.23758 119.68799 34591 ft 494 kts 135°
2026-05-06 14:29 14.21380 119.71371 33733 ft 498 kts 134°
2026-05-06 14:30 14.18987 119.73976 32778 ft 501 kts 134°
2026-05-06 14:30 14.16592 119.76594 31874 ft 503 kts 134°
2026-05-06 14:30 14.14217 119.79196 30947 ft 506 kts 134°
2026-05-06 14:30 14.11797 119.81849 29972 ft 509 kts 134°
2026-05-06 14:31 14.09373 119.84506 29206 ft 505 kts 134°
2026-05-06 14:31 14.07008 119.87099 29043 ft 489 kts 134°
2026-05-06 14:31 14.04718 119.89611 28906 ft 473 kts 134°
2026-05-06 14:31 14.02497 119.92042 28767 ft 458 kts 134°
2026-05-06 14:32 14.00345 119.94395 28632 ft 444 kts 134°
2026-05-06 14:32 13.98259 119.96674 28505 ft 431 kts 134°
2026-05-06 14:32 13.96230 119.98891 28357 ft 418 kts 134°
2026-05-06 14:32 13.94265 120.01038 28215 ft 407 kts 134°
2026-05-06 14:33 13.92348 120.03132 27959 ft 398 kts 134°
2026-05-06 14:33 13.90453 120.05202 27460 ft 397 kts 134°
2026-05-06 14:33 13.88622 120.07325 27005 ft 395 kts 127°
2026-05-06 14:33 13.87349 120.09809 26577 ft 392 kts 108°
2026-05-06 14:34 13.86974 120.12559 26143 ft 389 kts 87°
2026-05-06 14:34 13.87524 120.15256 25708 ft 385 kts 68°
2026-05-06 14:34 13.88909 120.17588 25297 ft 382 kts 48°
2026-05-06 14:34 13.90951 120.19303 24875 ft 379 kts 29°
2026-05-06 14:35 13.93403 120.20226 24453 ft 376 kts 10°
2026-05-06 14:35 13.95999 120.20319 24044 ft 373 kts 355°
2026-05-06 14:35 13.98577 120.20039 23623 ft 372 kts 353°
2026-05-06 14:35 14.01140 120.19719 23161 ft 369 kts 354°
2026-05-06 14:36 14.03689 120.19568 22727 ft 365 kts
2026-05-06 14:36 14.06146 120.20084 22319 ft 359 kts 20°
2026-05-06 14:36 14.08446 120.21046 21908 ft 355 kts 24°
2026-05-06 14:36 14.10695 120.22070 21505 ft 351 kts 24°
2026-05-06 14:37 14.12881 120.23068 21109 ft 347 kts 24°
2026-05-06 14:37 14.15081 120.24069 20725 ft 344 kts 24°
2026-05-06 14:37 14.17258 120.25057 20336 ft 340 kts 24°
2026-05-06 14:37 14.19417 120.26035 19950 ft 337 kts 24°
2026-05-06 14:38 14.21556 120.27002 19569 ft 334 kts 24°
2026-05-06 14:38 14.23676 120.27961 19183 ft 332 kts 24°
2026-05-06 14:38 14.25777 120.28911 18870 ft 327 kts 24°
2026-05-06 14:38 14.27851 120.29848 18496 ft 324 kts 24°
2026-05-06 14:39 14.29910 120.30780 18115 ft 322 kts 24°
2026-05-06 14:39 14.31957 120.31705 17709 ft 319 kts 24°
2026-05-06 14:39 14.33979 120.32619 17349 ft 315 kts 25°
2026-05-06 14:39 14.35971 120.33521 16990 ft 311 kts 25°
2026-05-06 14:40 14.37945 120.34414 16634 ft 307 kts 25°
2026-05-06 14:40 14.39894 120.35296 16270 ft 304 kts 25°
2026-05-06 14:40 14.41819 120.36168 15926 ft 300 kts 25°
2026-05-06 14:40 14.43630 120.37203 15579 ft 296 kts 38°
2026-05-06 14:41 14.44990 120.38728 15260 ft 292 kts 57°
2026-05-06 14:41 14.46039 120.40516 14917 ft 290 kts 61°
2026-05-06 14:41 14.47036 120.42329 14592 ft 289 kts 61°
2026-05-06 14:41 14.48025 120.44124 14270 ft 287 kts 61°
2026-05-06 14:42 14.49015 120.45910 13949 ft 286 kts 61°
2026-05-06 14:42 14.50002 120.47684 13612 ft 284 kts 61°
2026-05-06 14:42 14.50987 120.49451 13281 ft 283 kts 60°
2026-05-06 14:42 14.51968 120.51209 12966 ft 282 kts 61°
2026-05-06 14:43 14.52943 120.52956 12657 ft 280 kts 61°
2026-05-06 14:43 14.53900 120.54672 12337 ft 278 kts 61°
2026-05-06 14:43 14.54869 120.56410 12022 ft 276 kts 61°
2026-05-06 14:43 14.55816 120.58106 11705 ft 274 kts 61°
2026-05-06 14:44 14.56766 120.59809 11404 ft 272 kts 61°
2026-05-06 14:44 14.57549 120.61568 11075 ft 268 kts 77°
2026-05-06 14:44 14.57556 120.63467 10716 ft 266 kts 103°
2026-05-06 14:45 14.55269 120.66348 10021 ft 270 kts 144°
2026-05-06 14:45 14.53656 120.67341 9648 ft 269 kts 147°
2026-05-06 14:45 14.51931 120.68104 9209 ft 273 kts 166°
2026-05-06 14:45 14.50035 120.68046 8828 ft 277 kts 193°
2026-05-06 14:46 14.48329 120.67118 8320 ft 284 kts 219°
2026-05-06 14:46 14.47028 120.65534 7681 ft 294 kts 235°
2026-05-06 14:46 14.45910 120.63760 7177 ft 296 kts 237°
2026-05-06 14:46 14.44755 120.62009 6739 ft 295 kts 229°
2026-05-06 14:47 14.43132 120.60757 6294 ft 291 kts 202°
2026-05-06 14:47 14.41191 120.60356 5847 ft 283 kts 175°
2026-05-06 14:47 14.39331 120.60857 5428 ft 275 kts 149°
2026-05-06 14:47 14.37940 120.62137 5079 ft 264 kts 121°
2026-05-06 14:48 14.37347 120.63842 4988 ft 245 kts 95°
2026-05-06 14:48 14.37293 120.65538 4962 ft 227 kts 88°
2026-05-06 14:48 14.37333 120.67103 4967 ft 210 kts 88°
2026-05-06 14:48 14.37381 120.68545 4973 ft 200 kts 87°
2026-05-06 14:49 14.37426 120.69973 4978 ft 199 kts 88°
2026-05-06 14:49 14.37473 120.71396 4970 ft 199 kts 87°
2026-05-06 14:49 14.37520 120.72825 4975 ft 199 kts 87°
2026-05-06 14:49 14.37568 120.74248 4980 ft 199 kts 87°
2026-05-06 14:50 14.37617 120.75677 4982 ft 198 kts 87°
2026-05-06 14:50 14.37787 120.77089 4900 ft 199 kts 75°
2026-05-06 14:50 14.38280 120.78410 4692 ft 198 kts 65°
2026-05-06 14:50 14.38917 120.79674 4409 ft 198 kts 63°
2026-05-06 14:51 14.39560 120.80935 4091 ft 198 kts 64°
2026-05-06 14:51 14.40210 120.82188 3808 ft 198 kts 62°
2026-05-06 14:51 14.40881 120.83425 3536 ft 196 kts 62°
2026-05-06 14:51 14.41530 120.84636 3288 ft 194 kts 63°
2026-05-06 14:52 14.42180 120.85851 3050 ft 193 kts 63°
2026-05-06 14:52 14.42828 120.87054 2795 ft 191 kts 63°
2026-05-06 14:52 14.43473 120.88252 2561 ft 190 kts 63°
2026-05-06 14:52 14.44108 120.89437 2321 ft 186 kts 62°
2026-05-06 14:53 14.44729 120.90589 2060 ft 182 kts 62°
2026-05-06 14:53 14.45331 120.91709 1839 ft 176 kts 63°
2026-05-06 14:53 14.45912 120.92789 1628 ft 168 kts 64°
2026-05-06 14:53 14.46437 120.93823 1420 ft 163 kts 67°
2026-05-06 14:54 14.46918 120.94891 1188 ft 161 kts 64°
2026-05-06 14:54 14.47494 120.95824 1013 ft 147 kts 58°
2026-05-06 14:54 14.47982 120.96697 817 ft 135 kts 64°
2026-05-06 14:54 14.48411 120.97525 658 ft 129 kts 63°
2026-05-06 14:55 14.48855 120.98313 460 ft 126 kts 63°
2026-05-06 14:55 14.49294 120.99119 334 ft 132 kts 63°
2026-05-06 14:55 14.49755 120.99945 176 ft 132 kts 62°
2026-05-06 14:55 14.50194 121.00733 72 ft 125 kts 62°
2026-05-06 14:56 14.50550 121.01376 67 ft 65 kts 61°
2026-05-06 14:56 14.50633 121.01526 64 ft 1 kts 60°
2026-05-06 14:56 14.50663 121.01578 64 ft 18 kts 59°
2026-05-06 14:56 14.50771 121.01715 67 ft 31 kts 39°
2026-05-06 14:57 14.50852 121.01774 65 ft 12 kts 17°
2026-05-06 14:57 14.50862 121.01776 66 ft 0 kts
2026-05-06 14:59 14.50895 121.01772 68 ft 10 kts 340°
2026-05-06 14:59 14.50974 121.01701 66 ft 23 kts 314°
2026-05-06 14:59 14.51060 121.01612 67 ft 18 kts 315°
2026-05-06 14:59 14.51157 121.01510 63 ft 22 kts 315°
2026-05-06 15:00 14.51194 121.01470 74 ft 0 kts 314°
2026-05-06 15:01 14.51222 121.01445 67 ft 13 kts 324°
2026-05-06 15:01 14.51313 121.01455 65 ft 18 kts 19°
2026-05-06 15:01 14.51383 121.01527 64 ft 5 kts 30°
2026-05-06 15:01 14.51402 121.01546 66 ft 12 kts 52°
2026-05-06 15:02 14.51470 121.01574 69 ft 6 kts 330°
2026-05-06 15:02 14.51534 121.01525 65 ft 13 kts 344°
2026-05-06 15:02 14.51577 121.01535 66 ft 8 kts 28°
2026-05-06 15:02 14.51600 121.01551 65 ft 0 kts 39°
2026-05-06 15:03 14.51603 121.01553 64 ft 2 kts 34°
2026-05-06 15:03 14.51613 121.01562 67 ft 0 kts 42°